EW7152 Weather Reports


time (UTC)temp
C
wind
direction
speed
KPH
gust
KPH
rain 1hr
cm
rain 24hr
cm
rain mn
cm
humidity
%
barometer
mb
20260505041513 14 259 1.6 9.7 0.46 0.94 0.94 86 1015.8
20260505040028 14 247 3.2 8.0 0.76 0.94 0.94 86 1015.8
20260505034616 14 241 0.0 4.8 0.89 0.91 0.91 88 1015.7
20260505033014 14 239 1.6 6.4 0.84 0.89 0.89 90 1016.0
20260505031511 15 214 1.6 4.8 0.43 0.48 0.48 89 1016.0
20260505030014 16 282 0.0 6.4 0.13 0.15 0.15 88 1015.9
20260505024508 16 310 1.6 6.4 0.03 0.05 0.05 86 1015.9
20260505023006 16 299 1.6 14.5 0.03 0.05 0.05 86 1016.1
20260505021506 16 282 1.6 6.4 0.03 0.05 0.05 86 1016.2
20260505020008 16 295 3.2 9.7 0.03 0.05 0.05 85 1016.2
20260505014504 16 232 3.2 12.9 0.00 0.03 0.03 83 1016.5
20260505013003 16 321 3.2 11.3 0.00 0.03 0.03 84 1016.6
20260505011502 16 262 4.8 12.9 0.00 0.03 0.03 83 1016.7
20260505010002 17 253 3.2 12.9 0.00 0.03 0.03 82 1016.8
20260505004602 16 256 4.8 11.3 0.00 0.03 0.03 83 1016.8
20260505003057 16 255 3.2 8.0 0.00 0.03 0.03 84 1016.9
20260505001555 15 253 3.2 12.9 0.00 0.03 0.03 85 1017.3
20260505000100 15 279 4.8 14.5 0.00 0.03 0.03 85 1017.3
20260504234557 14 255 4.8 11.3 0.00 0.03 0.03 84 1017.3
20260504233044 13 313 4.8 9.7 0.00 0.03 0.03 89 1017.3
20260504231542 13 214 1.6 8.0 0.00 0.03 0.03 91 1017.3
20260504230036 13 268 0.0 4.8 0.00 0.03 0.03 91 1017.3
20260504224536 12 270 1.6 6.4 0.00 0.03 0.03 90 1017.3
20260504223032 12 284 1.6 4.8 0.00 0.03 0.03 91 1017.3
20260504221529 12 251 0.0 3.2 0.00 0.03 0.03 91 1017.9
20260504220041 11 251 0.0 4.8 0.00 0.03 0.03 90 1017.9
20260504214524 11 248 0.0 3.2 0.00 0.03 0.03 90 1017.8
20260504213021 11 216 0.0 3.2 0.00 0.03 0.03 89 1017.7
20260504211519 10 209 0.0 0.0 0.00 0.03 0.03 88 1017.8
20260504210017 10 210 0.0 0.0 0.00 0.03 0.03 86 1017.6
20260504204521 10 209 0.0 0.0 0.00 0.03 0.03 86 1017.3
20260504203015 10 209 0.0 0.0 0.00 0.03 0.03 86 1017.5
20260504201515 9 209 0.0 0.0 0.03 0.03 0.03 85 1017.4
20260504200014 9 209 0.0 0.0 0.03 0.03 0.03 85 1017.4
20260504194514 9 209 0.0 0.0 0.03 0.03 0.03 85 1017.4
20260504193012 8 209 0.0 0.0 0.03 0.03 0.03 85 1017.3
20260504191510 8 209 0.0 0.0 0.00 0.00 0.00 84 1017.1
20260504190012 8 209 0.0 0.0 0.00 0.00 0.00 85 1017.0
20260504184508 8 209 0.0 0.0 0.00 0.00 0.00 85 1017.0
20260504183007 8 209 0.0 0.0 0.00 0.00 0.00 85 1016.8
20260504181507 8 209 0.0 0.0 0.00 0.00 0.00 85 1016.9
20260504180006 7 209 0.0 0.0 0.00 0.00 0.00 85 1016.7
20260504174505 7 210 0.0 0.0 0.00 0.00 0.00 85 1016.4
20260504173004 7 210 0.0 0.0 0.00 0.00 0.00 86 1016.5
20260504171506 7 209 0.0 0.0 0.00 0.00 0.00 86 1016.4
20260504081520 17 230 0.0 1.6 0.00 0.03 0.03 68 1017.0
20260504050012 21 297 3.2 12.9 0.00 0.03 0.03 49 1016.0